sat.trackr.live / text

‹ back to catalog

STARLINK-11578 [DTC]

NORAD 63014 · 2025-032K

PAYLOAD ACTIVE UNKNOWN

§ Identity

Operator
Country
US
Launch date
2025-02-15
Launch site
AFETR
Launch vehicle
Mass (kg)
RCS (m²)

Purposes: comms

External: N2YO · Heavens-Above · Gunter

§ Orbital elements

Epoch: 2026-09-21T19:13:48.102816Z

Period
91.66 min
Inclination
43.0004°
Eccentricity
0.0001629
Mean motion
15.70944777 rev/d
Perigee alt
355.1 km
Apogee alt
357.3 km
Semi-major
6,734.3 km
B*
1.0387e-3
RAAN
93.5478°
Arg perigee
250.6987°
Mean anomaly
109.3705°
Rev number
9,300

§ Raw data

STARLINK-11578 [DTC]1 63014U 25032K   26264.80125119  .00135620  00000+0  10387-2 0  99902 63014  43.0004  93.5478 0001629 250.6987 109.3705 15.70944777 93006

JSON: /api/v1/satellites/63014 · /tle

For live sub-satellite position, see the globe view (requires WebGL).

§ Visibility from observer

Set your observer location to see the next 7 days of passes ≥ 10°. The values pass through the URL so the page stays shareable.

No JS? Fill the form by hand. The geolocation button needs JavaScript.